[[{"header":{"parameterUnit":"m.s-1","parameterCategory":2,"la1":30.2991,"la2":30.254,"lo1":-89.0895,"lo2":-89.0444,"dy":0.0017,"dx":0.0017,"nx":28,"ny":28,"refTime":"2025-04-09T21:00:00:Z","depth":"0","parameterNumber":2,"parameterNumberName":"U-component_of_CURRENTS"},"data":[0,0,0,0,0,0,0,0,0,0,0,0,0,0,0,0,0,0,0,0,0,0,0,0,0,0,0,0,0,0,0,0,0,0,0,0,0,0,0,0,0,0,0,0,0,0,0,0,0,0,0,0,0,0,0,0,0,0,0.3365,0.3366,0,0.3441,0.3442,0.3442,0.3515,0.3516,0.3517,0.3518,0.3709,0.3713,0.3717,0,0,0,0,0,0,0,0,0,0,0,0,0,0.3257,0.3259,0.3365,0.3366,0.3367,0.3441,0.3442,0.3443,0.3515,0.3516,0.3517,0.3519,0.3707,0.3712,0.3717,0,0,0,0,0,0,0,0,0,0,0,0,0,0.3315,0.3259,0.3365,0.3413,0.3418,0.344,0.3442,0.3443,0.3515,0.3516,0.3518,0.3519,0.3706,0.3712,0.3718,0.3726,0,0,0.3737,0.374,0,0,0,0,0,0,0,0,0.3312,0.3319,0.3405,0.3409,0.3415,0.3471,0.3474,0.3544,0.3514,0.3477,0.3518,0.352,0.3639,0.3651,0.3659,0.3735,0.3743,0.3737,0.3741,0.3744,0.3746,0,0,0,0,0,0,0,0.3307,0.3316,0.3394,0.3406,0.3412,0.3421,0.3431,0.3486,0.355,0.348,0.3486,0.3495,0.3643,0.3653,0.3665,0.3746,0.3737,0.3743,0.3747,0.3749,0.3918,0.3919,0,0,0,0,0,0,0.33,0.3312,0.3392,0.3397,0.3367,0.3422,0.3433,0.3451,0.3548,0.3563,0.3494,0.3498,0.3641,0.3657,0.3672,0.3778,0.3744,0.375,0.3753,0.3917,0.3918,0.3919,0,0,0,0,0,0,0.3297,0.3306,0.3389,0.3356,0.3367,0.3423,0.3441,0.3451,0.3468,0.3556,0.3574,0.3501,0.3643,0.3663,0.3734,0.3783,0.3752,0.3758,0.3916,0.3917,0.3918,0.3934,0,0,0,0,0,0,0.3294,0.3305,0.3306,0.3356,0.3369,0.3422,0.344,0.3452,0.3472,0.3478,0.3569,0.3587,0.3646,0.3724,0.374,0.3791,0.3763,0.3915,0.3917,0.3918,0.3932,0.3935,0.3938,0,0,0,0,0,0.329,0.3288,0.3305,0.3315,0.3372,0.3423,0.3431,0.3474,0.347,0.349,0.3543,0.3585,0.3745,0.3729,0.3748,0.3802,0.3915,0.3916,0.3918,0.3931,0.3935,0.3938,0,0,0,0,0,0,0.3216,0.3296,0.3317,0.3332,0.3383,0.3436,0.3448,0.3465,0.3515,0.3524,0.359,0.3614,0.3697,0.3732,0.3713,0.3851,0.3838,0.3844,0.3842,0.3846,0.3848,0.385,0.3768,0,0,0,0,0,0.3204,0.3241,0.3306,0.3316,0.3344,0.3389,0.3407,0.3443,0.3494,0.3516,0.3578,0.3644,0.3715,0.3764,0.3827,0.3896,0.3916,0.3942,0.3945,0.3947,0.3958,0.401,0.4019,0.3924,0.3924,0.3924,0,0,0.3169,0.3222,0.3235,0.3306,0.3344,0.3397,0.3405,0.3445,0.3492,0.3531,0.3605,0.3654,0.373,0.3819,0.386,0.386,0.3982,0.3949,0.3951,0.3961,0.4013,0.4022,0.403,0.3926,0.3925,0.3925,0,0,0.315,0.3176,0.3219,0.3272,0.3348,0.3386,0.3396,0.3463,0.35,0.3565,0.3612,0.3682,0.3778,0.3857,0.3903,0.3951,0.3987,0.3973,0.4006,0.4055,0.4064,0.4071,0.4098,0.4108,0.3984,0.3984,0.3984,0,0.3106,0.3173,0.323,0.3296,0.3332,0.3382,0.3429,0.3478,0.3558,0.3591,0.3596,0.3738,0.3802,0.3919,0.3947,0.3964,0.3982,0.399,0.406,0.4068,0.4075,0.4101,0.4112,0.3985,0.3985,0.3984,0.3984,0,0.3142,0.3194,0.3218,0.3328,0.3371,0.3415,0.3498,0.3544,0.3576,0.3627,0.3725,0.3804,0.3886,0.3928,0.3961,0.406,0.4051,0.4049,0.4051,0.4086,0.4111,0.4122,0.3986,0.3986,0.3985,0.3985,0,0,0.3035,0.3213,0.3219,0.3273,0.3391,0.3423,0.3509,0.3594,0.3632,0.3722,0.3776,0.3912,0.3933,0.3986,0.404,0.4104,0.4175,0.4104,0.4107,0.4131,0.427,0.4158,0.416,0.4183,0.4185,0.4187,0.4262,0,0.3041,0.317,0.3251,0.3331,0.3392,0.3469,0.3534,0.3618,0.3681,0.3748,0.3846,0.3918,0.3963,0.3996,0.4071,0.4161,0.4207,0.4154,0.4234,0.4236,0.4133,0.417,0.3999,0.4042,0.4272,0.4274,0.4276,0,0.3046,0.3134,0.3236,0.3347,0.3373,0.3416,0.3503,0.3573,0.3694,0.3745,0.3843,0.3904,0.4045,0.4037,0.4218,0.4182,0.422,0.4276,0.4279,0.418,0.4145,0.4047,0.4054,0.4061,0.4293,0.4291,0.429,0,0.2963,0.3103,0.3181,0.3226,0.3368,0.3393,0.3445,0.3559,0.3619,0.3736,0.378,0.3935,0.4002,0.4113,0.4229,0.4229,0.4384,0.4391,0.4322,0.4314,0.4187,0.4163,0.4209,0.4469,0.4469,0.4469,0.4468,0,0.2948,0.2987,0.3139,0.3181,0.3216,0.3325,0.3364,0.3446,0.3562,0.3615,0.3757,0.3821,0.4021,0.4129,0.4228,0.4311,0.4381,0.4335,0.4331,0.4183,0.416,0.4173,0.4163,0.4471,0.4471,0.447,0.447,0,0.2849,0.2973,0.3041,0.3168,0.3193,0.3206,0.3305,0.334,0.3463,0.3535,0.3572,0.3764,0.3894,0.4057,0.4231,0.4285,0.4281,0.4371,0.4171,0.4141,0.4073,0.4067,0.3893,0.3791,0.4332,0.4329,0.4328,0,0.2821,0.2859,0.2989,0.3015,0.3062,0.3104,0.3132,0.3269,0.331,0.3484,0.3504,0.3657,0.3725,0.395,0.4059,0.4186,0.4148,0.4106,0.4072,0.405,0.4044,0.3887,0.3804,0.3918,0.3913,0.3909,0.3906,0,0.2723,0.2771,0.2831,0.2895,0.2926,0.2953,0.2998,0.3023,0.3166,0.3233,0.3309,0.338,0.3576,0.3647,0.3817,0.3886,0.3929,0.402,0.4064,0.3773,0.3539,0.3444,0.3888,0.3868,0.3872,0.3875,0.3877,0.3878,0.2613,0.2612,0.27,0.273,0.2766,0.2751,0.2716,0.2787,0.2814,0.2884,0.3046,0.3125,0.3354,0.3558,0.358,0.3636,0.3622,0.3657,0.367,0.3528,0.3356,0.3697,0.3625,0.3627,0.3629,0.3631,0.3632,0,0.2455,0.2482,0.2523,0.2545,0.2505,0.2584,0.2585,0.2541,0.2496,0.2662,0.2714,0.293,0.3039,0.324,0.3403,0.3367,0.3206,0.3354,0.3153,0.3106,0.3496,0.341,0.3203,0.3203,0.3203,0.3203,0.3204,0.3204,0.2383,0.2358,0.2382,0.2274,0.2272,0.2169,0.2131,0.2125,0.2211,0.2295,0.2436,0.2601,0.3017,0.3299,0.335,0.3258,0.3098,0.2912,0.2974,0.3355,0.3386,0.3416,0.3338,0.312,0.312,0.2439,0.2434,0.2431]},{"header":{"parameterUnit":"m.s-1","parameterCategory":2,"la1":30.2991,"la2":30.254,"lo1":-89.0895,"lo2":-89.0444,"dy":0.0017,"dx":0.0017,"nx":28,"ny":28,"refTime":"2025-04-09T21:00:00:Z","depth":"0","parameterNumber":3,"parameterNumberName":"V-component_of_CURRENTS"},"data":[0,0,0,0,0,0,0,0,0,0,0,0,0,0,0,0,0,0,0,0,0,0,0,0,0,0,0,0,0,0,0,0,0,0,0,0,0,0,0,0,0,0,0,0,0,0,0,0,0,0,0,0,0,0,0,0,0,0,-0.0121,-0.0121,0,-0.019,-0.0191,-0.0192,-0.022,-0.022,-0.0219,-0.0219,-0.033,-0.0334,-0.0337,0,0,0,0,0,0,0,0,0,0,0,0,0,-0.0101,-0.0101,-0.0121,-0.0121,-0.0122,-0.019,-0.0191,-0.0193,-0.022,-0.022,-0.0219,-0.0218,-0.0329,-0.0333,-0.0337,0,0,0,0,0,0,0,0,0,0,0,0,0,-0.0137,-0.0101,-0.0121,-0.0141,-0.0143,-0.019,-0.0191,-0.0193,-0.022,-0.022,-0.0219,-0.0218,-0.0328,-0.0333,-0.0338,-0.0385,0,0,-0.0354,-0.0356,0,0,0,0,0,0,0,0,-0.0135,-0.0138,-0.0137,-0.014,-0.0142,-0.0192,-0.0225,-0.0258,-0.0221,-0.0195,-0.0219,-0.0218,-0.0286,-0.0295,-0.0314,-0.039,-0.0395,-0.0354,-0.0357,-0.036,-0.0361,0,0,0,0,0,0,0,-0.0132,-0.0136,-0.0152,-0.0138,-0.0141,-0.0177,-0.0181,-0.0232,-0.0248,-0.0197,-0.0198,-0.0201,-0.0288,-0.0309,-0.0317,-0.0397,-0.0354,-0.0359,-0.0362,-0.0364,-0.0463,-0.0462,0,0,0,0,0,0,-0.0113,-0.0133,-0.015,-0.0154,-0.0133,-0.0177,-0.0182,-0.018,-0.0246,-0.0254,-0.0201,-0.0201,-0.0301,-0.0311,-0.0321,-0.0329,-0.0359,-0.0364,-0.0367,-0.0463,-0.0463,-0.0462,0,0,0,0,0,0,-0.0112,-0.0113,-0.0147,-0.0142,-0.0149,-0.0177,-0.0176,-0.0182,-0.02,-0.0248,-0.0257,-0.0212,-0.03,-0.0314,-0.0351,-0.0336,-0.0367,-0.0371,-0.0464,-0.0463,-0.0462,-0.0379,0,0,0,0,0,0,-0.0111,-0.0113,-0.011,-0.0141,-0.0148,-0.0171,-0.0176,-0.0184,-0.0201,-0.0203,-0.0261,-0.0271,-0.0301,-0.0343,-0.0356,-0.0343,-0.0375,-0.0464,-0.0464,-0.0463,-0.0382,-0.0375,-0.037,0,0,0,0,0,-0.011,-0.01,-0.0109,-0.0111,-0.0141,-0.0171,-0.0179,-0.02,-0.0202,-0.0214,-0.0241,-0.0269,-0.0346,-0.0347,-0.0363,-0.0351,-0.0465,-0.0464,-0.0463,-0.0385,-0.0377,-0.037,0,0,0,0,0,0,-0.0088,-0.0103,-0.0113,-0.0108,-0.0138,-0.0174,-0.0182,-0.02,-0.0233,-0.0232,-0.0275,-0.0287,-0.031,-0.0348,-0.0347,-0.0376,-0.0407,-0.0409,-0.0342,-0.0335,-0.0329,-0.0291,-0.038,0,0,0,0,0,-0.0082,-0.0081,-0.0108,-0.0107,-0.0117,-0.0153,-0.0168,-0.0185,-0.0215,-0.0228,-0.0263,-0.0296,-0.0321,-0.034,-0.0375,-0.0404,-0.0419,-0.0403,-0.0396,-0.0391,-0.037,-0.0369,-0.036,-0.0459,-0.0459,-0.0459,0,0,-0.007,-0.0081,-0.0079,-0.0103,-0.0125,-0.0131,-0.0161,-0.0181,-0.0178,-0.0237,-0.0245,-0.0283,-0.0324,-0.034,-0.0354,-0.0369,-0.0375,-0.0389,-0.0384,-0.0366,-0.0367,-0.0357,-0.0348,-0.0458,-0.0458,-0.0458,0,0,-0.0052,-0.0059,-0.0056,-0.0075,-0.0105,-0.0121,-0.0124,-0.0161,-0.0169,-0.0197,-0.0217,-0.0235,-0.0301,-0.0302,-0.0316,-0.0301,-0.0342,-0.0324,-0.0262,-0.0261,-0.0252,-0.0245,-0.0267,-0.0262,-0.0319,-0.0319,-0.0319,0,-0.0042,-0.003,-0.0062,-0.0067,-0.006,-0.0109,-0.0095,-0.0119,-0.0161,-0.0147,-0.0189,-0.0225,-0.0271,-0.0249,-0.0245,-0.0283,-0.0302,-0.0286,-0.025,-0.0243,-0.0237,-0.0261,-0.0257,-0.0315,-0.0315,-0.0316,-0.0316,0,-0.0025,-0.0013,-0.0011,-0.0019,-0.0024,-0.0023,-0.0045,-0.0052,-0.007,-0.0083,-0.0081,-0.0142,-0.0153,-0.0176,-0.0214,-0.0182,-0.0218,-0.0241,-0.0263,-0.0221,-0.0251,-0.0248,-0.0309,-0.031,-0.0311,-0.0312,0,0,0.0012,0.0004,0.0011,0.0033,0.0011,0.0019,0.003,0.0048,0.0089,0.0024,0.0076,0.0014,-0.0016,-0.0032,-0.0078,-0.0086,-0.0078,-0.0145,-0.0147,-0.0155,-0.0094,-0.0126,-0.0126,-0.0097,-0.0096,-0.0095,-0.0138,0,0.0044,0.007,0.0057,0.0107,0.0132,0.0115,0.0147,0.0154,0.0148,0.0176,0.0127,0.0131,0.0038,0.0032,0.0012,-0.0045,-0.0063,-0.0065,-0.0143,-0.0145,-0.0168,-0.0121,-0.012,-0.0158,-0.0135,-0.0134,-0.0134,0,0.0079,0.0103,0.015,0.0212,0.0225,0.0241,0.032,0.0334,0.0354,0.0349,0.0337,0.0289,0.0267,0.0176,0.01,0.0099,0.0011,-0.0047,-0.005,-0.01,-0.017,-0.0195,-0.0154,-0.0325,-0.013,-0.013,-0.013,0,0.015,0.0185,0.0239,0.0249,0.0291,0.0327,0.0355,0.0391,0.0448,0.0453,0.0484,0.0437,0.042,0.0316,0.0163,0.0135,0.0077,0.0025,-0.0087,-0.0092,-0.0114,-0.0123,-0.0231,-0.0021,-0.0021,-0.0021,-0.0021,0,0.0208,0.0257,0.0274,0.0307,0.0405,0.0401,0.0511,0.0524,0.0582,0.0664,0.0571,0.0614,0.0454,0.0387,0.023,0.0087,0.0123,-0.0057,-0.009,-0.0089,-0.0095,-0.0264,-0.0356,-0.0022,-0.0022,-0.0022,-0.0021,0,0.0276,0.0274,0.0353,0.0412,0.0434,0.0505,0.0607,0.0694,0.0706,0.0806,0.0809,0.0768,0.066,0.0488,0.0332,0.0187,-0.0052,-0.0023,-0.0025,-0.0057,-0.0324,-0.041,-0.053,-0.061,-0.0141,-0.0142,-0.0142,0,0.0305,0.0346,0.0438,0.0499,0.0523,0.062,0.0704,0.0751,0.0844,0.0901,0.0964,0.089,0.0854,0.0606,0.0336,0.0078,-0.0086,-0.0086,-0.0136,-0.0319,-0.0441,-0.0499,-0.0562,-0.0147,-0.0148,-0.0149,-0.0149,0,0.0384,0.0413,0.0487,0.0614,0.0701,0.0816,0.0921,0.1009,0.1069,0.1137,0.12,0.1172,0.0917,0.0676,0.032,0.0122,-0.0201,-0.0106,-0.0283,-0.0433,-0.0513,-0.0613,-0.0163,-0.0154,-0.0153,-0.0153,-0.0153,-0.0153,0.0452,0.0523,0.0622,0.0746,0.0854,0.0983,0.1082,0.1189,0.1318,0.1417,0.1385,0.1393,0.1028,0.0539,0.0237,-0.0267,-0.0271,-0.042,-0.0505,-0.0543,-0.0629,-0.0199,-0.0237,-0.0237,-0.0237,-0.0237,-0.0237,0,0.0538,0.0617,0.0747,0.089,0.1025,0.1058,0.122,0.1321,0.145,0.1568,0.161,0.1499,0.1006,0.0528,-0.0149,-0.0556,-0.0712,-0.0789,-0.0877,-0.092,-0.0524,-0.0534,-0.0653,-0.0653,-0.0653,-0.0652,-0.0652,-0.0652,0.0585,0.0718,0.0785,0.1003,0.1106,0.1268,0.1353,0.1487,0.1612,0.1789,0.1869,0.1898,0.1598,0.0241,-0.0645,-0.0883,-0.1171,-0.1263,-0.1391,-0.114,-0.1113,-0.1086,-0.1118,-0.1357,-0.1358,-0.1743,-0.1747,-0.175]}],[{"header":{"parameterUnit":"m.s-1","parameterCategory":2,"la1":30.2991,"la2":30.254,"lo1":-89.0895,"lo2":-89.0444,"dy":0.0017,"dx":0.0017,"nx":28,"ny":28,"refTime":"2025-04-09T21:00:00:Z","depth":"2","parameterNumber":2,"parameterNumberName":"U-component_of_CURRENTS"},"data":[0,0,0,0,0,0,0,0,0,0,0,0,0,0,0,0,0,0,0,0,0,0,0,0,0,0,0,0,0,0,0,0,0,0,0,0,0,0,0,0,0,0,0,0,0,0,0,0,0,0,0,0,0,0,0,0,0,0,0.2895,0.2897,0,0.3005,0.3005,0.3005,0.3106,0.3108,0.3111,0.3113,0.2992,0.2986,0.2981,0,0,0,0,0,0,0,0,0,0,0,0,0,0.2781,0.2781,0.2895,0.2898,0.29,0.3005,0.3005,0.3005,0.3105,0.3108,0.3112,0.3114,0.2994,0.2987,0.298,0,0,0,0,0,0,0,0,0,0,0,0,0,0.2841,0.2781,0.2894,0.2973,0.2983,0.3005,0.3005,0.3005,0.3105,0.3109,0.3112,0.3116,0.2996,0.2988,0.298,0.2852,0,0,0.2954,0.295,0,0,0,0,0,0,0,0,0.2837,0.2843,0.2959,0.2968,0.2979,0.3058,0.2921,0.2947,0.3104,0.3043,0.3113,0.3118,0.2999,0.299,0.2986,0.2846,0.2841,0.2953,0.2948,0.2945,0.2942,0,0,0,0,0,0,0,0.2833,0.2839,0.2924,0.2962,0.2974,0.3008,0.3018,0.2926,0.2983,0.3049,0.306,0.3094,0.3001,0.2994,0.2983,0.2839,0.2953,0.2946,0.2941,0.2938,0.2868,0.2871,0,0,0,0,0,0,0.2843,0.2835,0.2921,0.2929,0.2932,0.3007,0.3019,0.3017,0.299,0.2995,0.309,0.3098,0.3006,0.2993,0.2979,0.3091,0.2945,0.2937,0.2932,0.2865,0.2869,0.2872,0,0,0,0,0,0,0.2839,0.2848,0.2917,0.2898,0.2911,0.3007,0.3003,0.3018,0.3048,0.3026,0.3025,0.3112,0.3009,0.2991,0.2953,0.3077,0.2933,0.2925,0.2861,0.2866,0.2871,0.3142,0,0,0,0,0,0,0.2835,0.2844,0.2865,0.2897,0.2913,0.2937,0.3001,0.3017,0.3067,0.3079,0.3042,0.3035,0.301,0.2966,0.2944,0.3063,0.2919,0.2857,0.2863,0.2869,0.3129,0.3156,0.3178,0,0,0,0,0,0.2829,0.2833,0.2864,0.2878,0.293,0.2938,0.2945,0.3019,0.3065,0.306,0.3071,0.3038,0.2992,0.2958,0.2933,0.3053,0.2854,0.2862,0.2869,0.3118,0.3151,0.3178,0,0,0,0,0,0,0.2796,0.2846,0.2881,0.2902,0.2927,0.2961,0.2987,0.302,0.3024,0.3061,0.3023,0.3013,0.307,0.2976,0.2941,0.3052,0.2937,0.2939,0.3136,0.3165,0.3189,0.3157,0.2912,0,0,0,0,0,0.2797,0.282,0.2855,0.288,0.2888,0.2934,0.2959,0.3009,0.3021,0.3032,0.3011,0.3015,0.3067,0.3045,0.3045,0.3021,0.2957,0.3096,0.3121,0.3143,0.31,0.3136,0.3161,0.2896,0.2896,0.2896,0,0,0.2797,0.2833,0.2849,0.2877,0.2904,0.2938,0.2954,0.3002,0.3067,0.3005,0.3058,0.3092,0.3085,0.3152,0.3164,0.3085,0.3192,0.3152,0.3171,0.3115,0.3146,0.3172,0.3195,0.2901,0.29,0.2899,0,0,0.2796,0.2825,0.284,0.2862,0.2927,0.2963,0.2977,0.3014,0.3066,0.3096,0.3159,0.3237,0.3198,0.3281,0.3309,0.3427,0.3349,0.3452,0.3515,0.3556,0.3577,0.3595,0.3586,0.3601,0.3434,0.3435,0.3435,0,0.2792,0.283,0.2844,0.2868,0.2925,0.2974,0.3018,0.3062,0.3099,0.3144,0.3141,0.3267,0.3281,0.3431,0.3522,0.3493,0.3461,0.3421,0.359,0.3606,0.362,0.3605,0.3618,0.3448,0.3447,0.3445,0.3444,0,0.2826,0.285,0.2856,0.2922,0.2969,0.3012,0.309,0.3143,0.3218,0.327,0.3409,0.345,0.3508,0.3597,0.3595,0.3749,0.3682,0.3653,0.3522,0.3664,0.3639,0.3648,0.3469,0.3463,0.3459,0.3456,0,0,0.2776,0.2865,0.2866,0.2908,0.3017,0.3047,0.3172,0.3276,0.3351,0.3434,0.3522,0.3707,0.3718,0.3747,0.3802,0.3852,0.3988,0.379,0.3785,0.3789,0.4037,0.3874,0.3866,0.3994,0.3996,0.3998,0.3993,0,0.279,0.2865,0.2923,0.3003,0.3036,0.3143,0.3234,0.3353,0.344,0.3511,0.3644,0.3729,0.3781,0.383,0.3911,0.3987,0.4014,0.3987,0.3883,0.3878,0.3727,0.3873,0.3621,0.3584,0.4,0.4002,0.4003,0,0.2786,0.2845,0.2942,0.3041,0.3067,0.3135,0.3307,0.339,0.3528,0.3589,0.3709,0.3759,0.3925,0.3895,0.4062,0.404,0.4031,0.406,0.406,0.3795,0.3731,0.3499,0.3582,0.4015,0.4014,0.4013,0.4013,0,0.276,0.2836,0.2937,0.2978,0.311,0.3182,0.3262,0.341,0.3481,0.3609,0.365,0.3826,0.389,0.3974,0.4045,0.4057,0.4145,0.4163,0.3993,0.3979,0.3677,0.3633,0.4191,0.4191,0.4191,0.4191,0.4191,0,0.2749,0.2789,0.2915,0.2969,0.3042,0.3147,0.3237,0.3337,0.3461,0.3513,0.3653,0.3705,0.3905,0.3975,0.4038,0.404,0.4136,0.4001,0.3976,0.3766,0.3732,0.4011,0.3991,0.4191,0.4191,0.4191,0.4191,0,0.2656,0.2772,0.2845,0.2994,0.3026,0.307,0.3187,0.3235,0.3365,0.3435,0.3469,0.3641,0.3747,0.3882,0.4,0.3991,0.4029,0.3962,0.3678,0.3619,0.3839,0.3833,0.3829,0.3823,0.3819,0.3815,0.3811,0,0.2631,0.2662,0.2823,0.2865,0.2917,0.2984,0.3022,0.3169,0.3208,0.3369,0.3377,0.3506,0.3538,0.3662,0.3706,0.3754,0.3865,0.3482,0.3467,0.383,0.3807,0.3808,0.3808,0.3196,0.3188,0.3181,0.3176,0,0.2527,0.2594,0.2671,0.2752,0.2808,0.283,0.2886,0.2906,0.3052,0.311,0.3151,0.3189,0.3305,0.3253,0.3303,0.331,0.3487,0.3344,0.3812,0.3315,0.323,0.3208,0.323,0.3117,0.3123,0.3127,0.3131,0.3133,0.2441,0.2439,0.2553,0.2599,0.2649,0.2624,0.2593,0.2652,0.2669,0.2706,0.2842,0.2818,0.2911,0.287,0.2828,0.2851,0.3098,0.3011,0.3034,0.3063,0.2979,0.2889,0.2695,0.2698,0.2701,0.2704,0.2706,0,0.2288,0.2314,0.2374,0.2421,0.2381,0.2468,0.2457,0.239,0.2323,0.2423,0.2432,0.2252,0.2232,0.2363,0.2301,0.2325,0.2345,0.2257,0.2276,0.2336,0.2389,0.2273,0.1801,0.1797,0.1794,0.1792,0,0,0.2225,0.2211,0.223,0.2132,0.2142,0.2031,0.1986,0.1934,0.1959,0.1883,0.1882,0.2056,0.2218,0.192,0.1946,0.1855,0.2071,0.1794,0.2527,0.2605,0.2654,0.2839,0.2729,0,0,0,0,0]},{"header":{"parameterUnit":"m.s-1","parameterCategory":2,"la1":30.2991,"la2":30.254,"lo1":-89.0895,"lo2":-89.0444,"dy":0.0017,"dx":0.0017,"nx":28,"ny":28,"refTime":"2025-04-09T21:00:00:Z","depth":"2","parameterNumber":3,"parameterNumberName":"V-component_of_CURRENTS"},"data":[0,0,0,0,0,0,0,0,0,0,0,0,0,0,0,0,0,0,0,0,0,0,0,0,0,0,0,0,0,0,0,0,0,0,0,0,0,0,0,0,0,0,0,0,0,0,0,0,0,0,0,0,0,0,0,0,0,0,-0.0029,-0.003,0,-0.0128,-0.013,-0.0131,-0.0182,-0.0182,-0.0182,-0.0182,-0.0259,-0.0262,-0.0264,0,0,0,0,0,0,0,0,0,0,0,0,0,0.0001,0.0001,-0.0029,-0.003,-0.0031,-0.0128,-0.013,-0.0132,-0.0182,-0.0182,-0.0182,-0.0182,-0.0259,-0.0261,-0.0264,0,0,0,0,0,0,0,0,0,0,0,0,0,-0.0049,0.0001,-0.0029,-0.0066,-0.007,-0.0128,-0.013,-0.0132,-0.0183,-0.0182,-0.0182,-0.0182,-0.0258,-0.0261,-0.0264,-0.0292,0,0,-0.0275,-0.0276,0,0,0,0,0,0,0,0,-0.0046,-0.0051,-0.006,-0.0063,-0.0068,-0.014,-0.0148,-0.0183,-0.0183,-0.0143,-0.0182,-0.0181,-0.0216,-0.0223,-0.0247,-0.0296,-0.0299,-0.0275,-0.0277,-0.0279,-0.028,0,0,0,0,0,0,0,-0.0042,-0.0047,-0.0072,-0.006,-0.0066,-0.0117,-0.0123,-0.0156,-0.0182,-0.0146,-0.015,-0.0156,-0.0218,-0.0243,-0.0249,-0.03,-0.0275,-0.0278,-0.028,-0.0282,-0.0363,-0.0364,0,0,0,0,0,0,-0.0018,-0.0043,-0.0068,-0.0074,-0.0053,-0.0117,-0.0124,-0.012,-0.0182,-0.0191,-0.0156,-0.0158,-0.0238,-0.0245,-0.0252,-0.0262,-0.0279,-0.0282,-0.0284,-0.0363,-0.0363,-0.0364,0,0,0,0,0,0,-0.0017,-0.0019,-0.0064,-0.006,-0.0068,-0.0117,-0.0112,-0.0122,-0.0149,-0.0189,-0.0198,-0.0173,-0.0238,-0.0247,-0.0274,-0.0266,-0.0283,-0.0286,-0.0363,-0.0363,-0.0363,-0.0299,0,0,0,0,0,0,-0.0016,-0.0018,-0.0024,-0.0057,-0.0067,-0.0094,-0.0113,-0.0124,-0.0152,-0.0155,-0.0206,-0.0213,-0.0238,-0.0269,-0.0278,-0.0271,-0.0289,-0.0363,-0.0363,-0.0363,-0.0301,-0.0297,-0.0293,0,0,0,0,0,-0.0014,-0.0008,-0.0023,-0.0027,-0.0067,-0.0093,-0.0104,-0.014,-0.0152,-0.0164,-0.0193,-0.0212,-0.0277,-0.0272,-0.0282,-0.0276,-0.0363,-0.0363,-0.0363,-0.0302,-0.0297,-0.0293,0,0,0,0,0,0,-0.0003,-0.0013,-0.003,-0.003,-0.006,-0.0101,-0.0116,-0.0141,-0.0177,-0.0183,-0.0216,-0.0225,-0.0249,-0.0274,-0.0268,-0.0302,-0.0322,-0.0325,-0.0272,-0.0268,-0.0265,-0.0221,-0.0292,0,0,0,0,0,-0.0001,0.0002,-0.0024,-0.0029,-0.0037,-0.008,-0.0101,-0.0126,-0.0155,-0.0172,-0.0201,-0.0234,-0.026,-0.0272,-0.0306,-0.0323,-0.0334,-0.0326,-0.0323,-0.0319,-0.0292,-0.0292,-0.0285,-0.0365,-0.0365,-0.0365,0,0,0.0002,-0.0006,-0.0006,-0.0027,-0.0053,-0.0057,-0.0092,-0.0118,-0.0121,-0.0174,-0.0187,-0.0227,-0.0265,-0.0283,-0.0295,-0.03,-0.0311,-0.0319,-0.0316,-0.029,-0.0292,-0.0284,-0.0276,-0.0365,-0.0365,-0.0365,0,0,0.0015,0.0004,0.0011,-0.0001,-0.0033,-0.0055,-0.0058,-0.0096,-0.0112,-0.014,-0.017,-0.0193,-0.0248,-0.0255,-0.0269,-0.0265,-0.0296,-0.0291,-0.0228,-0.0229,-0.0222,-0.0215,-0.0247,-0.0243,-0.0281,-0.0281,-0.0281,0,0.0014,0.0029,0.0004,0.0011,0.0012,-0.0043,-0.0032,-0.0058,-0.0103,-0.0094,-0.0136,-0.0182,-0.0225,-0.0211,-0.0217,-0.0252,-0.0271,-0.024,-0.0221,-0.0215,-0.0209,-0.0242,-0.0239,-0.0278,-0.0278,-0.0279,-0.0279,0,0.0032,0.0048,0.0055,0.0056,0.0045,0.0046,0.0022,0.001,-0.0022,-0.0039,-0.0049,-0.0109,-0.0124,-0.0154,-0.0189,-0.0167,-0.0202,-0.022,-0.0223,-0.0196,-0.0235,-0.0233,-0.0273,-0.0275,-0.0275,-0.0276,0,0,0.0051,0.0065,0.0075,0.0099,0.0078,0.0082,0.0085,0.0091,0.0126,0.0057,0.0101,0.0028,-0.0002,-0.0019,-0.0067,-0.0074,-0.0078,-0.0128,-0.0129,-0.0143,-0.0103,-0.0137,-0.0139,-0.0094,-0.0092,-0.0091,-0.0155,0,0.008,0.0121,0.0114,0.0163,0.0192,0.0169,0.0195,0.019,0.0174,0.0201,0.0144,0.0144,0.0049,0.004,0.0019,-0.0043,-0.0066,-0.006,-0.014,-0.0142,-0.0162,-0.0134,-0.0117,-0.0172,-0.0154,-0.0153,-0.0153,0,0.0117,0.0148,0.0197,0.0261,0.0273,0.0285,0.0341,0.0352,0.037,0.0361,0.0345,0.0296,0.027,0.0182,0.0096,0.0101,0.0005,-0.0055,-0.006,-0.0102,-0.0171,-0.0193,-0.017,-0.015,-0.015,-0.0151,-0.0151,0,0.0172,0.0223,0.027,0.0286,0.033,0.0357,0.0376,0.0404,0.0458,0.0462,0.0492,0.044,0.0421,0.0313,0.0151,0.0128,0.0056,0.0009,-0.0114,-0.012,-0.0122,-0.0129,-0.0047,-0.0047,-0.0047,-0.0046,-0.0046,0,0.023,0.0279,0.0302,0.0338,0.0426,0.0422,0.052,0.0531,0.0587,0.0668,0.0576,0.0613,0.0454,0.0379,0.0217,0.0061,0.0097,-0.0087,-0.0123,-0.0106,-0.011,-0.01,-0.0105,-0.0049,-0.0048,-0.0048,-0.0047,0,0.0294,0.0297,0.0376,0.0432,0.0454,0.0518,0.0615,0.0701,0.0712,0.0811,0.0813,0.0764,0.0647,0.047,0.0303,0.0155,0.0002,-0.0072,-0.0059,-0.0091,-0.0195,-0.0197,-0.0199,-0.02,-0.0201,-0.0202,-0.0203,0,0.0322,0.0365,0.0455,0.0514,0.054,0.0631,0.0713,0.0758,0.0849,0.09,0.0961,0.0876,0.0824,0.0558,0.0288,0.0018,-0.0017,-0.0136,-0.0171,-0.0168,-0.0203,-0.0203,-0.0203,-0.0171,-0.0171,-0.0172,-0.0172,0,0.0399,0.0428,0.05,0.0628,0.0712,0.0825,0.0927,0.1011,0.1069,0.113,0.1176,0.1132,0.0864,0.0606,0.0241,0.0056,-0.0089,-0.0153,-0.0122,-0.0133,-0.0146,-0.018,-0.0179,-0.0176,-0.0175,-0.0175,-0.0175,-0.0175,0.0462,0.0533,0.0631,0.0755,0.0861,0.0987,0.108,0.1179,0.1297,0.137,0.133,0.1267,0.0965,0.05,0.018,-0.0141,-0.0132,-0.0238,-0.0234,-0.0231,-0.0214,-0.0227,-0.0272,-0.0272,-0.0272,-0.0272,-0.0273,0,0.0544,0.0623,0.0751,0.0891,0.1021,0.1058,0.1214,0.1295,0.1403,0.147,0.1481,0.1203,0.0887,0.0545,0.0062,-0.0233,-0.0255,-0.0316,-0.0275,-0.027,-0.0265,-0.0249,-0.0317,-0.0318,-0.0318,-0.0319,0,0,0.0588,0.0718,0.0785,0.0995,0.1095,0.1249,0.1328,0.1427,0.1503,0.1554,0.1531,0.1433,0.1009,0.0656,0.0244,-0.0027,-0.0077,-0.0084,-0.0018,0.0085,0.0093,-0.0192,-0.0158,0,0,0,0,0]}],[{"header":{"parameterUnit":"m.s-1","parameterCategory":2,"la1":30.2991,"la2":30.254,"lo1":-89.0895,"lo2":-89.0444,"dy":0.0017,"dx":0.0017,"nx":28,"ny":28,"refTime":"2025-04-09T21:00:00:Z","depth":"4","parameterNumber":2,"parameterNumberName":"U-component_of_CURRENTS"},"data":[0,0,0,0,0,0,0,0,0,0,0,0,0,0,0,0,0,0,0,0,0,0,0,0,0,0,0,0,0,0,0,0,0,0,0,0,0,0,0,0,0,0,0,0,0,0,0,0,0,0,0,0,0,0,0,0,0,0,0.0525,0.0525,0,0.0468,0.0466,0.0465,0.0428,0.0429,0.0429,0.043,0.029,0.0286,0.0282,0,0,0,0,0,0,0,0,0,0,0,0,0,0.0473,0.0474,0.0525,0.0525,0.0526,0.0468,0.0466,0.0464,0.0428,0.0429,0.043,0.0431,0.0292,0.0287,0.0281,0,0,0,0,0,0,0,0,0,0,0,0,0,0.0453,0.0474,0.0525,0.0509,0.0508,0.0469,0.0466,0.0464,0.0427,0.0429,0.043,0.0431,0.0294,0.0287,0.028,0.0213,0,0,0.026,0.0257,0,0,0,0,0,0,0,0,0.0454,0.0453,0.0511,0.051,0.0509,0.0467,0.0397,0.038,0.0427,0.0445,0.043,0.0432,0.0348,0.0337,0.0308,0.0206,0.02,0.0259,0.0255,0.0252,0.025,0,0,0,0,0,0,0,0.0455,0.0455,0.049,0.0512,0.051,0.0462,0.046,0.0392,0.038,0.0444,0.0444,0.0456,0.0346,0.0315,0.0304,0.0198,0.0259,0.0253,0.0249,0.0246,0.0107,0.0107,0,0,0,0,0,0,0.0492,0.0457,0.0492,0.049,0.0497,0.0463,0.046,0.0469,0.0382,0.0374,0.0455,0.0455,0.0325,0.0312,0.0299,0.0295,0.0252,0.0246,0.0242,0.0107,0.0107,0.0107,0,0,0,0,0,0,0.0491,0.0495,0.0495,0.0481,0.048,0.0465,0.0473,0.0468,0.0474,0.0394,0.0382,0.0474,0.0326,0.0309,0.026,0.0287,0.0243,0.0237,0.0106,0.0107,0.0107,0.0235,0,0,0,0,0,0,0.0489,0.0495,0.0532,0.0484,0.0482,0.0477,0.0473,0.0466,0.0484,0.0483,0.0405,0.0392,0.0326,0.0271,0.0253,0.0277,0.0231,0.0106,0.0106,0.0107,0.023,0.024,0.0248,0,0,0,0,0,0.0487,0.0502,0.0534,0.054,0.0527,0.0478,0.047,0.0455,0.0484,0.047,0.0432,0.0396,0.0263,0.0265,0.0244,0.0267,0.0105,0.0106,0.0107,0.0226,0.0238,0.0248,0,0,0,0,0,0,0.0545,0.05,0.0533,0.0553,0.0536,0.0477,0.0462,0.0481,0.0441,0.0448,0.0388,0.0369,0.0348,0.028,0.0284,0.0228,0.0183,0.018,0.0281,0.0291,0.0299,0.0374,0.0226,0,0,0,0,0,0.0573,0.0533,0.0531,0.0547,0.0534,0.0517,0.051,0.0508,0.0467,0.0453,0.041,0.0361,0.0326,0.0291,0.0238,0.0188,0.0219,0.0192,0.0201,0.0209,0.0255,0.0365,0.0391,0.011,0.011,0.011,0,0,0.0572,0.0575,0.0541,0.0551,0.0522,0.0505,0.0509,0.0491,0.0504,0.0441,0.0424,0.0396,0.0326,0.0286,0.0269,0.0235,0.0291,0.021,0.0218,0.026,0.0369,0.0398,0.0423,0.0111,0.0111,0.011,0,0,0.0565,0.0578,0.0547,0.0516,0.0517,0.0511,0.0525,0.0494,0.0502,0.0493,0.0468,0.0461,0.0379,0.0343,0.0316,0.0337,0.0351,0.032,0.0406,0.0512,0.0538,0.0561,0.0593,0.0618,0.0306,0.0306,0.0306,0,0.0617,0.0572,0.0537,0.0517,0.0513,0.0524,0.0524,0.0512,0.0487,0.0516,0.0502,0.0481,0.0413,0.0412,0.0425,0.0362,0.0422,0.0374,0.0532,0.0556,0.0578,0.0605,0.0632,0.0312,0.0312,0.0311,0.031,0,0.0542,0.0543,0.0509,0.0491,0.0502,0.0465,0.0484,0.0512,0.0557,0.0567,0.0611,0.0547,0.0563,0.0519,0.0481,0.0587,0.0577,0.0554,0.0524,0.0616,0.0634,0.0661,0.0321,0.0319,0.0317,0.0316,0,0,0.0603,0.0481,0.0483,0.0485,0.0478,0.0482,0.0528,0.0579,0.0657,0.0644,0.0738,0.0687,0.0729,0.0705,0.0664,0.0722,0.0893,0.0728,0.073,0.0791,0.1124,0.1012,0.1028,0.0943,0.0949,0.0954,0.106,0,0.0587,0.0502,0.0492,0.0489,0.0454,0.0506,0.0567,0.0632,0.0695,0.0771,0.0768,0.0815,0.0774,0.0817,0.0887,0.0888,0.0978,0.0866,0.0998,0.1,0.092,0.1061,0.0974,0.1079,0.1085,0.1089,0.1092,0,0.0557,0.0503,0.045,0.0499,0.0508,0.0568,0.0718,0.0775,0.0884,0.0926,0.1008,0.1022,0.1084,0.1058,0.1181,0.1135,0.1189,0.1178,0.1182,0.1068,0.094,0.0973,0.1139,0.1135,0.1132,0.1129,0.1126,0,0.0577,0.0527,0.0486,0.0459,0.0495,0.0605,0.0714,0.0853,0.0946,0.1063,0.1155,0.1211,0.1307,0.1363,0.1365,0.1329,0.15,0.1424,0.1367,0.1354,0.1365,0.1339,0.1604,0.1604,0.1604,0.1603,0.1603,0,0.0559,0.0564,0.0497,0.0468,0.0574,0.0644,0.0826,0.094,0.1104,0.1196,0.1281,0.1363,0.143,0.1508,0.1464,0.1494,0.1601,0.1439,0.1414,0.14,0.1378,0.138,0.1352,0.1607,0.1606,0.1606,0.1605,0,0.0632,0.0521,0.0496,0.0513,0.0579,0.0679,0.0922,0.1044,0.1202,0.1344,0.1399,0.1568,0.1646,0.1655,0.1725,0.1653,0.1623,0.1624,0.1595,0.1555,0.1374,0.1351,0.1565,0.1563,0.1561,0.156,0.1558,0,0.0621,0.0595,0.0558,0.0552,0.0599,0.0745,0.0894,0.109,0.1209,0.1409,0.1489,0.1663,0.1712,0.1744,0.1732,0.1669,0.165,0.1642,0.1538,0.1437,0.139,0.137,0.135,0.1555,0.1555,0.1554,0.1554,0,0.0669,0.0656,0.0631,0.0606,0.0706,0.0806,0.1025,0.1107,0.1293,0.1424,0.1546,0.1576,0.1698,0.1695,0.1721,0.1638,0.1619,0.1622,0.1624,0.1526,0.1427,0.1378,0.1361,0.1548,0.1548,0.1549,0.1549,0,0.0723,0.072,0.0659,0.0674,0.0759,0.086,0.0949,0.1109,0.1259,0.1464,0.1469,0.1577,0.1688,0.1684,0.1635,0.1611,0.1564,0.1488,0.1496,0.1503,0.1424,0.1285,0.14,0,0,0,0,0,0.0737,0.0754,0.0743,0.0719,0.0806,0.0871,0.1043,0.111,0.1264,0.1338,0.1405,0.1455,0.1468,0.1536,0.1491,0.1566,0.1546,0.1502,0.1457,0.1512,0.152,0.1424,0,0,0,0,0,0,0.0732,0.0747,0.074,0.0785,0.08,0.0931,0.1023,0.1101,0.1156,0.1273,0.1321,0.1376,0.1442,0.149,0.1472,0.1478,0.1418,0.1557,0.1553,0.1508,0.1515,0.1521,0.1425,0,0,0,0,0]},{"header":{"parameterUnit":"m.s-1","parameterCategory":2,"la1":30.2991,"la2":30.254,"lo1":-89.0895,"lo2":-89.0444,"dy":0.0017,"dx":0.0017,"nx":28,"ny":28,"refTime":"2025-04-09T21:00:00:Z","depth":"4","parameterNumber":3,"parameterNumberName":"V-component_of_CURRENTS"},"data":[0,0,0,0,0,0,0,0,0,0,0,0,0,0,0,0,0,0,0,0,0,0,0,0,0,0,0,0,0,0,0,0,0,0,0,0,0,0,0,0,0,0,0,0,0,0,0,0,0,0,0,0,0,0,0,0,0,0,0.0372,0.0372,0,0.038,0.038,0.0381,0.0407,0.0407,0.0408,0.0408,0.0345,0.0344,0.0342,0,0,0,0,0,0,0,0,0,0,0,0,0,0.0386,0.0386,0.0372,0.0372,0.0371,0.038,0.038,0.0381,0.0407,0.0407,0.0408,0.0408,0.0346,0.0344,0.0342,0,0,0,0,0,0,0,0,0,0,0,0,0,0.039,0.0386,0.0372,0.0382,0.0382,0.038,0.038,0.0381,0.0407,0.0408,0.0408,0.0408,0.0347,0.0344,0.0341,0.0321,0,0,0.0333,0.0332,0,0,0,0,0,0,0,0,0.039,0.039,0.0381,0.0381,0.0381,0.0388,0.0362,0.0356,0.0407,0.0403,0.0408,0.0408,0.035,0.0347,0.0356,0.0318,0.0316,0.0333,0.0331,0.033,0.033,0,0,0,0,0,0,0,0.039,0.039,0.038,0.038,0.0381,0.0387,0.0389,0.0362,0.0378,0.0404,0.0404,0.0397,0.035,0.0359,0.0355,0.0315,0.0333,0.0331,0.0329,0.0328,0.0194,0.0192,0,0,0,0,0,0,0.0378,0.039,0.038,0.038,0.038,0.0386,0.0388,0.039,0.038,0.0378,0.0397,0.0398,0.0363,0.0358,0.0352,0.0313,0.033,0.0328,0.0326,0.0196,0.0193,0.0191,0,0,0,0,0,0,0.0378,0.0377,0.0379,0.038,0.0381,0.0385,0.0388,0.039,0.0412,0.0374,0.0372,0.0417,0.0363,0.0356,0.0322,0.0311,0.0327,0.0324,0.0198,0.0195,0.0192,0.0243,0,0,0,0,0,0,0.0379,0.0378,0.0392,0.038,0.038,0.0383,0.0387,0.039,0.0404,0.0406,0.039,0.0384,0.0363,0.0326,0.0319,0.0308,0.0322,0.0201,0.0197,0.0193,0.0244,0.0242,0.0241,0,0,0,0,0,0.038,0.0397,0.0393,0.0393,0.0395,0.0382,0.0384,0.0391,0.0405,0.0414,0.0391,0.0386,0.0297,0.0323,0.0315,0.0303,0.0202,0.0198,0.0193,0.0245,0.0243,0.0241,0,0,0,0,0,0,0.0398,0.04,0.0396,0.041,0.0396,0.0385,0.0398,0.0401,0.0396,0.0403,0.0374,0.0365,0.0316,0.0299,0.0328,0.0245,0.0243,0.0237,0.0284,0.0282,0.028,0.0293,0.032,0,0,0,0,0,0.0408,0.0421,0.0412,0.0411,0.0418,0.0412,0.0415,0.0416,0.04,0.0403,0.0391,0.0354,0.029,0.0282,0.0229,0.0209,0.0173,0.0186,0.0185,0.0184,0.0184,0.0109,0.0101,0.0177,0.0177,0.0177,0,0,0.0409,0.0408,0.0415,0.0416,0.0414,0.043,0.0417,0.0422,0.0424,0.0391,0.0403,0.0346,0.0274,0.0232,0.021,0.0226,0.0144,0.0178,0.0179,0.0179,0.0103,0.0096,0.009,0.0174,0.0174,0.0175,0,0,0.0405,0.0423,0.0437,0.0436,0.0434,0.0446,0.0452,0.0457,0.0452,0.044,0.0391,0.0323,0.029,0.0216,0.0173,0.0128,0.0122,0.0126,0.0157,0.0084,0.0078,0.0073,0.0034,0.0024,0.0148,0.0148,0.0148,0,0.0399,0.0427,0.0433,0.0442,0.046,0.046,0.0487,0.0473,0.0462,0.0432,0.0448,0.0316,0.0266,0.0157,0.0152,0.0124,0.0112,0.0181,0.0086,0.008,0.0073,0.0034,0.0023,0.015,0.0149,0.0149,0.0149,0,0.0412,0.0435,0.0442,0.0471,0.0492,0.0508,0.0506,0.0506,0.0514,0.0479,0.0386,0.0308,0.0234,0.0195,0.0174,0.0088,0.0104,0.0081,0.0105,0.0069,0.003,0.0017,0.0152,0.0152,0.0151,0.0151,0,0,0.0382,0.0446,0.0447,0.0474,0.0521,0.0532,0.0538,0.0524,0.0505,0.0459,0.0404,0.0283,0.0246,0.0192,0.0136,0.0082,0.0029,0.0099,0.0094,0.0085,-0.0084,-0.0055,-0.0065,0.002,0.0017,0.0016,-0.0086,0,0.0389,0.0435,0.0478,0.0528,0.0561,0.0579,0.0591,0.0563,0.0534,0.0477,0.034,0.0266,0.0243,0.0213,0.0152,0.0039,-0.0002,0.0061,-0.0072,-0.0076,-0.0025,-0.008,0.0008,-0.0095,-0.0098,-0.01,-0.0102,0,0.0392,0.0429,0.0508,0.0566,0.0587,0.0653,0.0678,0.0678,0.0575,0.0517,0.0413,0.0318,0.019,0.019,0.0012,0.0073,0.0015,-0.0061,-0.0068,-0.0067,-0.007,-0.0063,-0.0125,-0.0123,-0.0121,-0.012,-0.0118,0,0.039,0.0442,0.0528,0.0549,0.0625,0.0686,0.0752,0.0714,0.0693,0.0564,0.0504,0.0335,0.0264,0.0137,-0.0003,0.002,-0.0186,-0.0192,-0.0229,-0.0227,-0.024,-0.0233,-0.0305,-0.0305,-0.0304,-0.0304,-0.0304,0,0.0398,0.044,0.0553,0.0606,0.0694,0.075,0.0811,0.0809,0.0773,0.0703,0.0567,0.0461,0.026,0.0112,-0.0007,-0.0154,-0.0191,-0.0237,-0.0262,-0.0216,-0.0206,-0.0248,-0.024,-0.0308,-0.0307,-0.0306,-0.0306,0,0.0387,0.0455,0.053,0.0657,0.0718,0.0795,0.0913,0.0906,0.0883,0.0792,0.0751,0.0566,0.0368,0.0163,-0.0065,-0.0143,-0.0312,-0.0346,-0.027,-0.0287,-0.0296,-0.0285,-0.0405,-0.0406,-0.0406,-0.0406,-0.0406,0,0.0402,0.0447,0.0589,0.0656,0.0756,0.0864,0.0929,0.0967,0.0947,0.0829,0.0773,0.0594,0.0426,0.0141,-0.006,-0.0305,-0.0321,-0.0388,-0.0355,-0.03,-0.0313,-0.0301,-0.029,-0.0406,-0.0406,-0.0406,-0.0406,0,0.041,0.0464,0.0537,0.0683,0.0802,0.0858,0.0975,0.0966,0.0937,0.0891,0.0766,0.0592,0.0377,0.0148,-0.0031,-0.021,-0.0349,-0.0388,-0.0389,-0.0359,-0.0301,-0.0311,-0.0301,-0.0406,-0.0406,-0.0406,-0.0406,0,0.042,0.045,0.0562,0.0686,0.0787,0.0858,0.0907,0.0918,0.0922,0.0826,0.0776,0.0546,0.0429,0.0196,0.0007,-0.0151,-0.0178,-0.0207,-0.0217,-0.0219,-0.0134,-0.0032,-0.0085,0,0,0,0,0,0.0418,0.0461,0.0561,0.069,0.0775,0.0856,0.0916,0.0932,0.0896,0.0827,0.0823,0.0614,0.0351,0.0236,0.0085,-0.0006,-0.0222,-0.0187,-0.0263,-0.0407,-0.0406,-0.0335,0,0,0,0,0,0,0.0421,0.0495,0.0541,0.0654,0.0747,0.0843,0.0881,0.0876,0.0848,0.0799,0.0673,0.0605,0.0358,0.0444,0.0093,0.0041,-0.0021,-0.0308,-0.0311,-0.0407,-0.0407,-0.0406,-0.0333,0,0,0,0,0]}]]